Weather History for Douglas, WY

Change the Weather History Date:

Thursday, July 19, 2012

  Actual Average Record
Temperature  
Mean Temperature 79 °F 72 °F  
Max Temperature 102 °F 89 °F 102 °F (2012)
Min Temperature 56 °F 55 °F 51 °F (2008)
Degree Days  
Heating Degree Days 0 0  
Month to date heating degree days 0 9  
Since 1 June heating degree days 20 119  
Since 1 July heating degree days 0 9  
Cooling Degree Days 14 7  
Month to date cooling degree days 230 114  
Year to date cooling degree days 437 191  
Since 1 June cooling degree days 418 185  
Growing Degree Days 30 (Base 50)    
Moisture  
Dew Point 35 °F    
Average Humidity 23    
Maximum Humidity 37    
Minimum Humidity 9    
Precipitation  
Precipitation 0.00 in 0.04 in 0.14 in (2002)
Month to date precipitation 0.06 0.89  
Year to date precipitation 3.37 8.44  
Sea Level Pressure  
Sea Level Pressure 29.91 in    
Wind  
Wind Speed 5 mph (NNW)    
Max Wind Speed 22 mph    
Max Gust Speed 28 mph    
Visibility 10 miles    
Events      
T = Trace of Precipitation, MM = Missing Value Source: NWS Daily Summary

Daily Weather History Graph

Daily Weather History Graph

Search for Another Location

Airport:

Trip Planner

Search our weather history database for the weather conditions in past years. The results will help you decide how hot, cold, wet, or windy it might be!

Date:

Astronomy

Jul. 19, 2012 Rise Set
Actual Time 5:40 AM MDT 8:34 PM MDT
Civil Twilight 5:07 AM MDT 9:07 PM MDT
Nautical Twilight 4:24 AM MDT 9:50 PM MDT
Astronomical Twilight 3:35 AM MDT 10:39 PM MDT
Moon 6:20 AM MDT (7/19) 8:39 PM MDT (7/19)
Length of Visible Light 16h 00m
Length of Day
14h 53m
New Moon, 0% of the Moon is Illuminated
Jul 19
New Moon
Jul 26
First Quarter
Aug 1
Full
Aug 9
Last Quarter
Aug 17
New

Hourly Weather History & Observations

Time (MDT) Temp. Dew Point Humidity Pressure Visibility Wind Dir Wind Speed Gust Speed Precip Events Conditions
12:53 AM 72.0 °F 35.1 °F 26% 29.86 in 10.0 mi East 3.5 mph - N/A   Clear
1:53 AM 66.0 °F 35.1 °F 32% 29.88 in 10.0 mi NNW 5.8 mph - N/A   Clear
2:53 AM 66.9 °F 34.0 °F 30% 29.88 in 10.0 mi Calm Calm - N/A   Clear
3:53 AM 63.0 °F 34.0 °F 34% 29.90 in 10.0 mi Calm Calm - N/A   Clear
4:53 AM 59.0 °F 33.1 °F 38% 29.93 in 10.0 mi Calm Calm - N/A   Clear
5:53 AM 59.0 °F 34.0 °F 39% 29.94 in 10.0 mi Calm Calm - N/A   Clear
6:53 AM 66.0 °F 37.0 °F 34% 29.95 in 10.0 mi Calm Calm - N/A   Clear
7:53 AM 71.1 °F 41.0 °F 34% 29.96 in 10.0 mi WNW 3.5 mph - N/A   Clear
8:53 AM 80.1 °F 37.9 °F 22% 29.97 in 10.0 mi Calm Calm - N/A   Clear
9:53 AM 88.0 °F 37.9 °F 17% 29.96 in 10.0 mi Variable 3.5 mph - N/A   Clear
10:53 AM 93.9 °F 37.0 °F 14% 29.94 in 10.0 mi NW 9.2 mph - N/A   Clear
11:53 AM 99.0 °F 33.1 °F 10% 29.93 in 10.0 mi NW 16.1 mph - N/A   Clear
12:53 PM 100.0 °F 30.9 °F 9% 29.93 in 10.0 mi WNW 16.1 mph 25.3 mph N/A   Clear
1:53 PM 99.0 °F 30.9 °F 9% 29.92 in 10.0 mi NNW 8.1 mph 24.2 mph N/A   Clear
2:53 PM 100.0 °F 32.0 °F 9% 29.91 in 10.0 mi NW 4.6 mph 23.0 mph N/A   Clear
3:53 PM 100.0 °F 30.9 °F 9% 29.91 in 10.0 mi NNW 4.6 mph - N/A   Clear
4:53 PM 100.9 °F 30.9 °F 9% 29.89 in 10.0 mi WNW 8.1 mph 21.9 mph N/A   Clear
5:53 PM 98.1 °F 30.9 °F 9% 29.89 in 10.0 mi Variable 5.8 mph - N/A   Clear
6:53 PM 96.1 °F 30.9 °F 10% 29.87 in 10.0 mi Calm Calm - N/A   Clear
7:53 PM 91.9 °F 34.0 °F 13% 29.88 in 10.0 mi Calm Calm - N/A   Clear
8:53 PM 86.0 °F 33.1 °F 15% 29.88 in 10.0 mi Calm Calm - N/A   Clear
9:53 PM 80.1 °F 34.0 °F 19% 29.92 in 10.0 mi East 10.4 mph - N/A   Clear
10:53 PM 80.1 °F 44.1 °F 28% 29.90 in 10.0 mi East 5.8 mph - N/A   Clear
11:53 PM 80.1 °F 45.0 °F 29% 29.89 in 10.0 mi ESE 11.5 mph - N/A   Clear